EZY73UB LCPH-EGGW

Flight info

Callsign EZY73UB
Flight time N/A
Altitude 34000
Route GENOS DCT PEDER DCT EVENO DCT BENEM UN127 RIKSO DCT FSK DCT DISOR DCT LONTA UL608 DOLEV DCT AGLIB DCT BEDOX DCT SIMBA DCT MAMOR DCT INBED DCT BOMBI DCT KOZUF DCT IMPOH DCT SASKI L608 SUMUM Y6 TOSVA
Aircraft A320/M-SDE2E3FGHIJ1RWXYZ/LB1

Departure

Time 2026-05-05 20:29
Airport Paphos International Airport (LCPH)

Arrival

Time N/A
Airport London Luton Airport (EGGW)
Time Latitude Longitude Altitude Speed Heading
2026-05-05 19:21 34.71290 32.48614 24 ft 0 kts 154°
2026-05-05 20:18 34.71291 32.48614 24 ft 1 kts 154°
2026-05-05 20:18 34.71304 32.48606 25 ft 2 kts 154°
2026-05-05 20:19 34.71317 32.48598 26 ft 2 kts 154°
2026-05-05 20:19 34.71331 32.48590 27 ft 2 kts 154°
2026-05-05 20:19 34.71340 32.48585 27 ft 2 kts 152°
2026-05-05 20:19 34.71351 32.48572 28 ft 2 kts 120°
2026-05-05 20:20 34.71357 32.48555 28 ft 2 kts 95°
2026-05-05 20:20 34.71355 32.48536 28 ft 1 kts 70°
2026-05-05 20:20 34.71353 32.48529 28 ft 1 kts 63°
2026-05-05 20:20 34.71352 32.48526 28 ft 0 kts 65°
2026-05-05 20:22 34.71365 32.48560 28 ft 5 kts 65°
2026-05-05 20:22 34.71380 32.48602 29 ft 5 kts 65°
2026-05-05 20:22 34.71394 32.48640 29 ft 5 kts 65°
2026-05-05 20:23 34.71410 32.48684 29 ft 6 kts 65°
2026-05-05 20:23 34.71429 32.48736 29 ft 6 kts 65°
2026-05-05 20:23 34.71446 32.48781 31 ft 4 kts 65°
2026-05-05 20:23 34.71458 32.48812 32 ft 3 kts 64°
2026-05-05 20:24 34.71466 32.48833 32 ft 1 kts 64°
2026-05-05 20:24 34.71473 32.48852 33 ft 4 kts 65°
2026-05-05 20:24 34.71490 32.48894 34 ft 6 kts 64°
2026-05-05 20:24 34.71511 32.48942 35 ft 5 kts 52°
2026-05-05 20:25 34.71524 32.48959 36 ft 0 kts 39°
2026-05-05 20:25 34.71526 32.48960 36 ft 3 kts 39°
2026-05-05 20:26 34.71560 32.48983 38 ft 6 kts 22°
2026-05-05 20:26 34.71608 32.49006 38 ft 9 kts 25°
2026-05-05 20:26 34.71631 32.49083 38 ft 11 kts 109°
2026-05-05 20:26 34.71600 32.49186 38 ft 14 kts 109°
2026-05-05 20:27 34.71555 32.49338 38 ft 19 kts 110°
2026-05-05 20:27 34.71505 32.49499 38 ft 20 kts 110°
2026-05-05 20:27 34.71458 32.49661 38 ft 19 kts 108°
2026-05-05 20:27 34.71423 32.49800 38 ft 14 kts 103°
2026-05-05 20:28 34.71413 32.49781 38 ft 7 kts 298°
2026-05-05 20:28 34.71462 32.49632 38 ft 47 kts 292°
2026-05-05 20:28 34.71661 32.48986 38 ft 112 kts 290°
2026-05-05 20:28 34.72009 32.47843 54 ft 168 kts 289°
2026-05-05 20:29 34.72384 32.46463 688 ft 168 kts 287°
2026-05-05 20:29 34.72422 32.45026 1316 ft 174 kts 259°
2026-05-05 20:29 34.72111 32.43588 1981 ft 176 kts 254°
2026-05-05 20:29 34.71737 32.42083 2373 ft 192 kts 254°
2026-05-05 20:30 34.71336 32.40428 2757 ft 208 kts 255°
2026-05-05 20:30 34.70921 32.38645 3127 ft 227 kts 255°
2026-05-05 20:30 34.70471 32.36665 3480 ft 248 kts 256°
2026-05-05 20:30 34.69994 32.34543 3992 ft 263 kts 256°
2026-05-05 20:31 34.69510 32.32375 4788 ft 266 kts 256°
2026-05-05 20:31 34.69020 32.30180 5611 ft 268 kts 256°
2026-05-05 20:31 34.68528 32.27970 6385 ft 271 kts 256°
2026-05-05 20:31 34.68033 32.25748 7176 ft 273 kts 256°
2026-05-05 20:32 34.67530 32.23490 7951 ft 276 kts 256°
2026-05-05 20:32 34.67018 32.21197 8740 ft 278 kts 256°
2026-05-05 20:32 34.66511 32.18914 9471 ft 280 kts 258°
2026-05-05 20:32 34.66190 32.16560 10204 ft 281 kts 267°
2026-05-05 20:33 34.66193 32.14128 10702 ft 292 kts 274°
2026-05-05 20:33 34.66360 32.11588 11010 ft 309 kts 276°
2026-05-05 20:33 34.66566 32.08888 11441 ft 321 kts 276°
2026-05-05 20:33 34.66771 32.06160 12131 ft 323 kts 275°
2026-05-05 20:34 34.66970 32.03417 12841 ft 325 kts 275°
2026-05-05 20:34 34.67167 32.00626 13541 ft 327 kts 275°
2026-05-05 20:34 34.67359 31.97862 14221 ft 328 kts 275°
2026-05-05 20:34 34.67554 31.95037 14902 ft 330 kts 275°
2026-05-05 20:35 34.67807 31.92211 15557 ft 331 kts 281°
2026-05-05 20:35 34.68424 31.89484 16191 ft 333 kts 291°
2026-05-05 20:35 34.69446 31.86898 16842 ft 335 kts 298°
2026-05-05 20:35 34.70622 31.84450 17471 ft 336 kts 300°
2026-05-05 20:36 34.71834 31.81983 18056 ft 338 kts 300°
2026-05-05 20:36 34.73058 31.79490 18638 ft 340 kts 299°
2026-05-05 20:36 34.74283 31.76988 19205 ft 342 kts 299°
2026-05-05 20:36 34.75511 31.74474 19755 ft 343 kts 299°
2026-05-05 20:37 34.76748 31.71936 20294 ft 345 kts 299°
2026-05-05 20:37 34.77580 31.70227 20648 ft 347 kts 298°
2026-05-05 20:37 34.79241 31.66811 21328 ft 349 kts 298°
2026-05-05 20:37 34.80503 31.64209 21585 ft 359 kts 298°
2026-05-05 20:38 34.81809 31.61514 21908 ft 365 kts 298°
2026-05-05 20:38 34.83125 31.58802 22402 ft 366 kts 298°
2026-05-05 20:38 34.84439 31.56090 22881 ft 368 kts 298°
2026-05-05 20:38 34.85748 31.53386 23334 ft 370 kts 298°
2026-05-05 20:39 34.87077 31.50638 23775 ft 372 kts 298°
2026-05-05 20:39 34.88416 31.47868 24205 ft 374 kts 298°
2026-05-05 20:39 34.89766 31.45071 24591 ft 376 kts 298°
2026-05-05 20:39 34.91118 31.42270 24913 ft 381 kts 297°
2026-05-05 20:40 34.92476 31.39448 25211 ft 385 kts 297°
2026-05-05 20:40 34.93860 31.36574 25502 ft 389 kts 297°
2026-05-05 20:40 34.95264 31.33650 25788 ft 394 kts 297°
2026-05-05 20:40 34.96669 31.30712 26072 ft 398 kts 297°
2026-05-05 20:41 34.98087 31.27748 26340 ft 403 kts 297°
2026-05-05 20:41 34.99538 31.24715 26601 ft 407 kts 297°
2026-05-05 20:41 35.00995 31.21668 26855 ft 412 kts 297°
2026-05-05 20:41 35.02456 31.18614 27096 ft 416 kts 297°
2026-05-05 20:42 35.03941 31.15509 27342 ft 420 kts 297°
2026-05-05 20:42 35.05443 31.12370 27605 ft 424 kts 298°
2026-05-05 20:42 35.06953 31.09214 27903 ft 426 kts 297°
2026-05-05 20:42 35.08462 31.06056 28227 ft 427 kts 297°
2026-05-05 20:43 35.09984 31.02867 28636 ft 426 kts 297°
2026-05-05 20:43 35.11505 30.99693 29058 ft 425 kts 297°
2026-05-05 20:43 35.13016 30.96546 29440 ft 424 kts 297°
2026-05-05 20:43 35.14510 30.93421 29798 ft 424 kts 297°
2026-05-05 20:44 35.16079 30.90260 30153 ft 424 kts 300°
2026-05-05 20:44 35.17764 30.87248 30497 ft 425 kts 303°
2026-05-05 20:44 35.19585 30.84363 30824 ft 426 kts 306°
2026-05-05 20:44 35.21561 30.81578 31147 ft 427 kts 309°
2026-05-05 20:45 35.25660 30.76208 31778 ft 427 kts 310°
2026-05-05 20:45 35.27705 30.73541 32068 ft 427 kts 310°
2026-05-05 20:45 35.29782 30.70831 32354 ft 427 kts 310°
2026-05-05 20:46 35.31835 30.68145 32591 ft 428 kts 310°
2026-05-05 20:46 35.33919 30.65416 32801 ft 429 kts 310°
2026-05-05 20:46 35.35980 30.62714 33003 ft 431 kts 310°
2026-05-05 20:46 35.38032 30.60021 33211 ft 431 kts 310°
2026-05-05 20:47 35.40109 30.57293 33408 ft 432 kts 310°
2026-05-05 20:47 35.42186 30.54561 33597 ft 433 kts 310°
2026-05-05 20:47 35.44280 30.51806 33785 ft 434 kts 310°
2026-05-05 20:47 35.46396 30.49019 33962 ft 435 kts 310°
2026-05-05 20:48 35.50567 30.43520 34001 ft 438 kts 310°
2026-05-05 20:48 35.54790 30.37939 34007 ft 447 kts 310°
2026-05-05 20:49 35.59112 30.32213 34008 ft 456 kts 309°
2026-05-05 20:49 35.63484 30.26394 34008 ft 460 kts 309°
2026-05-05 20:50 35.67143 30.21532 34007 ft 460 kts 309°
2026-05-05 20:50 35.72257 30.14732 34007 ft 460 kts 309°
2026-05-05 20:51 35.76671 30.08851 34007 ft 460 kts 309°
2026-05-05 20:51 35.81027 30.02987 34005 ft 459 kts 308°
2026-05-05 20:52 35.84973 29.96707 34006 ft 456 kts 301°
2026-05-05 20:52 35.88446 29.90082 34006 ft 456 kts 299°
2026-05-05 20:53 35.91860 29.83431 34006 ft 455 kts 299°
2026-05-05 20:53 35.95299 29.76730 34006 ft 455 kts 299°
2026-05-05 20:54 35.98697 29.70106 34006 ft 455 kts 299°
2026-05-05 20:54 36.02113 29.63441 34006 ft 455 kts 299°
2026-05-05 20:55 36.05513 29.56792 34006 ft 455 kts 300°
2026-05-05 20:55 36.08917 29.50123 34006 ft 456 kts 299°
2026-05-05 20:56 36.12334 29.43445 34006 ft 455 kts 300°
2026-05-05 20:56 36.15871 29.36856 34005 ft 457 kts 303°
2026-05-05 20:57 36.19918 29.30724 34006 ft 459 kts 309°
2026-05-05 20:57 36.24548 29.25106 34006 ft 462 kts 316°
2026-05-05 20:58 36.29469 29.19922 34007 ft 463 kts 317°
2026-05-05 20:58 36.34400 29.14777 34006 ft 463 kts 316°
2026-05-05 20:59 36.39324 29.09596 34006 ft 463 kts 316°
2026-05-05 20:59 36.44231 29.04418 34007 ft 463 kts 316°
2026-05-05 21:00 36.49163 28.99206 34008 ft 461 kts 316°
2026-05-05 21:00 36.54011 28.94071 34008 ft 458 kts 316°
2026-05-05 21:01 36.58850 28.88937 34008 ft 454 kts 317°
2026-05-05 21:01 36.63673 28.83810 34008 ft 451 kts 317°
2026-05-05 21:02 36.68427 28.78749 34007 ft 448 kts 317°
2026-05-05 21:02 36.73171 28.73719 34006 ft 448 kts 317°
2026-05-05 21:03 36.77945 28.68663 34006 ft 448 kts 317°
2026-05-05 21:03 36.82731 28.63582 34006 ft 448 kts 317°
2026-05-05 21:04 36.87458 28.58551 34006 ft 448 kts 317°
2026-05-05 21:04 36.92180 28.53516 34006 ft 448 kts 317°
2026-05-05 21:05 36.96936 28.48436 34006 ft 448 kts 317°
2026-05-05 21:05 37.01677 28.43367 34006 ft 448 kts 317°
2026-05-05 21:06 37.06334 28.38375 34006 ft 448 kts 317°
2026-05-05 21:06 37.11033 28.33306 34182 ft 448 kts 316°
2026-05-05 21:07 37.13432 28.30704 34406 ft 446 kts 316°
2026-05-05 21:07 37.15781 28.28157 34658 ft 443 kts 316°
2026-05-05 21:07 37.18142 28.25610 34912 ft 441 kts 316°
2026-05-05 21:07 37.20459 28.23117 35162 ft 438 kts 316°
2026-05-05 21:08 37.22776 28.20622 35415 ft 435 kts 316°
2026-05-05 21:08 37.25067 28.18151 35665 ft 432 kts 316°
2026-05-05 21:08 37.27343 28.15691 35858 ft 431 kts 316°
2026-05-05 21:08 37.29636 28.13210 35954 ft 432 kts 316°
2026-05-05 21:09 37.34209 28.08238 36014 ft 435 kts 315°
2026-05-05 21:09 37.38823 28.03201 36028 ft 440 kts 315°
2026-05-05 21:10 37.43509 27.98075 36032 ft 445 kts 316°
2026-05-05 21:10 37.47545 27.93656 36032 ft 447 kts 316°
2026-05-05 21:11 37.52508 27.88211 36032 ft 447 kts 316°
2026-05-05 21:11 37.57138 27.83123 36032 ft 447 kts 316°
2026-05-05 21:12 37.61874 27.77908 36032 ft 447 kts 316°
2026-05-05 21:12 37.66548 27.72753 36032 ft 447 kts 316°
2026-05-05 21:13 37.71240 27.67570 36032 ft 447 kts 316°
2026-05-05 21:13 37.75919 27.62391 36032 ft 447 kts 316°
2026-05-05 21:14 37.80611 27.57188 36031 ft 447 kts 316°
2026-05-05 21:14 37.85290 27.51989 36032 ft 447 kts 316°
2026-05-05 21:15 37.89931 27.46835 36035 ft 448 kts 316°
2026-05-05 21:15 37.94685 27.41627 36040 ft 448 kts 316°
2026-05-05 21:16 37.99347 27.36515 36045 ft 443 kts 316°
2026-05-05 21:16 38.03889 27.31507 36052 ft 442 kts 315°
2026-05-05 21:17 38.08542 27.26354 36055 ft 441 kts 315°
2026-05-05 21:17 38.13119 27.21309 36056 ft 441 kts 316°
2026-05-05 21:18 38.17739 27.16223 36058 ft 442 kts 315°
2026-05-05 21:18 38.22262 27.11219 36058 ft 442 kts 315°
2026-05-05 21:19 38.26933 27.06030 36058 ft 441 kts 315°
2026-05-05 21:19 38.31513 27.00936 36058 ft 440 kts 316°
2026-05-05 21:20 38.36142 26.95824 36058 ft 440 kts 316°
2026-05-05 21:20 38.40785 26.90707 36058 ft 439 kts 316°
2026-05-05 21:21 38.44497 26.86604 36058 ft 439 kts 316°
2026-05-05 21:21 38.49329 26.81251 36058 ft 439 kts 316°
2026-05-05 21:22 38.53929 26.76146 36058 ft 439 kts 316°
2026-05-05 21:22 38.58175 26.71425 36058 ft 439 kts 316°
2026-05-05 21:23 38.66655 26.61972 36058 ft 439 kts 316°
2026-05-05 21:24 38.71227 26.56863 36058 ft 439 kts 316°
2026-05-05 21:24 38.75487 26.52092 36058 ft 439 kts 316°
2026-05-05 21:25 38.80252 26.46747 36058 ft 439 kts 316°
2026-05-05 21:25 38.84594 26.41428 36058 ft 437 kts 311°
2026-05-05 21:26 38.88573 26.35770 36058 ft 436 kts 309°
2026-05-05 21:26 38.92518 26.30042 36059 ft 436 kts 309°
2026-05-05 21:27 38.96553 26.24177 36059 ft 435 kts 309°
2026-05-05 21:27 39.00417 26.18567 36059 ft 435 kts 309°
2026-05-05 21:28 39.04489 26.12653 36059 ft 434 kts 309°
2026-05-05 21:28 39.08508 26.06810 36058 ft 434 kts 309°
2026-05-05 21:29 39.12516 26.00991 36058 ft 434 kts 309°
2026-05-05 21:29 39.16504 25.95212 36058 ft 434 kts 309°
2026-05-05 21:30 39.20572 25.89286 36058 ft 434 kts 309°
2026-05-05 21:30 39.24537 25.83486 36057 ft 434 kts 309°
2026-05-05 21:31 39.28553 25.77595 36053 ft 434 kts 309°
2026-05-05 21:31 39.32551 25.71719 36047 ft 434 kts 309°
2026-05-05 21:32 39.36446 25.65982 36042 ft 434 kts 309°
2026-05-05 21:32 39.40465 25.60051 36037 ft 434 kts 309°
2026-05-05 21:33 39.44415 25.54210 36035 ft 434 kts 309°
2026-05-05 21:33 39.48370 25.48352 36034 ft 434 kts 309°
2026-05-05 21:34 39.52193 25.42676 36034 ft 434 kts 309°
2026-05-05 21:34 39.56163 25.36774 36033 ft 434 kts 309°
2026-05-05 21:35 39.59978 25.31076 36034 ft 434 kts 308°
2026-05-05 21:35 39.64004 25.25043 36034 ft 434 kts 308°
2026-05-05 21:36 39.67929 25.19164 36034 ft 434 kts 308°
2026-05-05 21:36 39.71910 25.13201 36033 ft 434 kts 308°
2026-05-05 21:37 39.75891 25.07229 36033 ft 435 kts 308°
2026-05-05 21:37 39.79812 25.01336 36033 ft 437 kts 307°
2026-05-05 21:38 39.86803 24.90787 36033 ft 439 kts 307°
2026-05-05 21:39 39.90788 24.84756 36034 ft 439 kts 307°
2026-05-05 21:39 39.94743 24.78763 36033 ft 439 kts 307°
2026-05-05 21:40 39.98672 24.72797 36034 ft 443 kts 307°
2026-05-05 21:40 40.02589 24.66841 36033 ft 445 kts 307°
2026-05-05 21:41 40.06594 24.60740 36033 ft 445 kts 307°
2026-05-05 21:41 40.10540 24.54716 36035 ft 445 kts 307°
2026-05-05 21:42 40.14501 24.48701 36040 ft 445 kts 307°
2026-05-05 21:42 40.18539 24.42544 36048 ft 445 kts 307°
2026-05-05 21:43 40.22563 24.36376 36054 ft 445 kts 307°
2026-05-05 21:43 40.26569 24.30199 36057 ft 445 kts 306°
2026-05-05 21:44 40.30506 24.24106 36058 ft 445 kts 306°
2026-05-05 21:44 40.34554 24.17843 36058 ft 444 kts 306°
2026-05-05 21:45 40.38517 24.11705 36058 ft 445 kts 306°
2026-05-05 21:45 40.42516 24.05500 36058 ft 444 kts 306°
2026-05-05 21:46 40.46424 23.99426 36059 ft 445 kts 306°
2026-05-05 21:46 40.50449 23.93155 36057 ft 444 kts 306°
2026-05-05 21:47 40.54329 23.87100 36051 ft 445 kts 306°
2026-05-05 21:47 40.58279 23.80924 36041 ft 444 kts 306°
2026-05-05 21:48 40.62183 23.74808 36030 ft 444 kts 306°
2026-05-05 21:48 40.66082 23.68685 36019 ft 445 kts 306°
2026-05-05 21:49 40.70029 23.62476 36012 ft 445 kts 306°
2026-05-05 21:49 40.74011 23.56200 36008 ft 445 kts 306°
2026-05-05 21:50 40.77987 23.49920 36005 ft 444 kts 306°
2026-05-05 21:50 40.81905 23.43720 36005 ft 445 kts 306°
2026-05-05 21:51 40.85680 23.37732 36005 ft 445 kts 306°
2026-05-05 21:51 40.89717 23.31305 36006 ft 445 kts 306°
2026-05-05 21:52 40.95601 23.21903 36006 ft 445 kts 306°
2026-05-05 21:53 40.99612 23.15494 36006 ft 443 kts 306°
2026-05-05 21:53 41.03553 23.09188 36006 ft 442 kts 306°
2026-05-05 21:54 41.07505 23.02854 36006 ft 440 kts 307°
2026-05-05 21:54 41.11250 22.96870 36006 ft 438 kts 308°
2026-05-05 21:55 41.15292 22.90583 36005 ft 437 kts 309°
2026-05-05 21:55 41.19266 22.84374 36003 ft 437 kts 309°
2026-05-05 21:56 41.23199 22.78193 36004 ft 438 kts 309°
2026-05-05 21:56 41.27214 22.72142 36005 ft 439 kts 311°
2026-05-05 21:57 41.31338 22.66130 36004 ft 439 kts 311°
2026-05-05 21:57 41.35325 22.60302 36005 ft 438 kts 311°
2026-05-05 21:58 41.39493 22.54190 36005 ft 438 kts 311°
2026-05-05 21:58 41.43540 22.48243 36003 ft 439 kts 311°
2026-05-05 21:59 41.47672 22.42156 36003 ft 439 kts 311°
2026-05-05 21:59 41.51778 22.36094 36005 ft 438 kts 311°
2026-05-05 22:00 41.55860 22.30032 36003 ft 438 kts 311°
2026-05-05 22:00 41.59917 22.23992 36004 ft 439 kts 311°
2026-05-05 22:01 41.63984 22.17939 36002 ft 439 kts 311°
2026-05-05 22:01 41.68055 22.11874 36004 ft 439 kts 311°
2026-05-05 22:02 41.71969 22.06034 36006 ft 438 kts 311°
2026-05-05 22:02 41.76014 21.99988 36003 ft 439 kts 311°
2026-05-05 22:03 41.80146 21.93798 36005 ft 439 kts 311°
2026-05-05 22:03 41.84218 21.87690 36005 ft 439 kts 311°
2026-05-05 22:04 41.88325 21.81512 36005 ft 438 kts 311°
2026-05-05 22:04 41.92347 21.75453 36003 ft 439 kts 311°
2026-05-05 22:05 41.96440 21.69272 36005 ft 439 kts 311°
2026-05-05 22:05 42.00394 21.63290 36005 ft 438 kts 311°
2026-05-05 22:06 42.04413 21.57194 36005 ft 438 kts 311°
2026-05-05 22:06 42.08546 21.50918 36003 ft 439 kts 311°
2026-05-05 22:07 42.12548 21.44844 36004 ft 439 kts 311°
2026-05-05 22:07 42.16578 21.38711 36003 ft 439 kts 310°
2026-05-05 22:08 42.20422 21.32652 36007 ft 438 kts 309°
2026-05-05 22:08 42.24333 21.26403 36009 ft 439 kts 309°
2026-05-05 22:09 42.28274 21.20116 36021 ft 438 kts 309°
2026-05-05 22:09 42.32225 21.13815 36031 ft 438 kts 309°
2026-05-05 22:10 42.36081 21.07653 36043 ft 437 kts 310°
2026-05-05 22:10 42.39982 21.01397 36051 ft 432 kts 310°
2026-05-05 22:11 42.43853 20.95183 36056 ft 428 kts 311°
2026-05-05 22:11 42.47590 20.89172 36056 ft 427 kts 313°
2026-05-05 22:12 42.51296 20.83214 36057 ft 428 kts 313°
2026-05-05 22:12 42.55058 20.77162 36058 ft 427 kts 313°
2026-05-05 22:13 42.58987 20.70819 36059 ft 427 kts 313°
2026-05-05 22:13 42.62791 20.64663 36057 ft 427 kts 313°
2026-05-05 22:14 42.66624 20.58444 36057 ft 427 kts 313°
2026-05-05 22:14 42.70449 20.52224 36057 ft 428 kts 313°
2026-05-05 22:15 42.74319 20.45915 36058 ft 428 kts 313°
2026-05-05 22:15 42.78145 20.39666 36056 ft 428 kts 313°
2026-05-05 22:16 42.82000 20.33384 36057 ft 427 kts 314°
2026-05-05 22:16 42.86074 20.27562 36058 ft 425 kts 318°
2026-05-05 22:17 42.90374 20.21942 36058 ft 424 kts 319°
2026-05-05 22:17 42.94645 20.16386 36056 ft 424 kts 319°
2026-05-05 22:18 42.98899 20.10836 36046 ft 423 kts 319°
2026-05-05 22:18 43.03176 20.05247 36042 ft 421 kts 318°
2026-05-05 22:19 43.07442 19.99657 36043 ft 421 kts 318°
2026-05-05 22:19 43.11672 19.94110 36046 ft 421 kts 318°
2026-05-05 22:20 43.15965 19.88497 36044 ft 421 kts 318°
2026-05-05 22:20 43.20244 19.82876 36039 ft 421 kts 318°
2026-05-05 22:21 43.24486 19.77280 36038 ft 421 kts 318°
2026-05-05 22:21 43.28749 19.71642 36039 ft 421 kts 318°
2026-05-05 22:22 43.33020 19.65978 36037 ft 421 kts 318°
2026-05-05 22:22 43.37261 19.60342 36032 ft 421 kts 318°
2026-05-05 22:23 43.41530 19.54657 36031 ft 421 kts 318°
2026-05-05 22:23 43.45589 19.49240 36036 ft 421 kts 318°
2026-05-05 22:24 43.49927 19.43438 36040 ft 421 kts 318°
2026-05-05 22:24 43.53394 19.38793 36039 ft 421 kts 318°
2026-05-05 22:25 43.57482 19.33301 36035 ft 421 kts 317°
2026-05-05 22:26 43.65416 19.22571 36026 ft 421 kts 317°
2026-05-05 22:26 43.69047 19.17657 36030 ft 420 kts 318°
2026-05-05 22:27 43.73347 19.11822 36029 ft 411 kts 319°
2026-05-05 22:27 43.77380 19.06346 36027 ft 401 kts 320°
2026-05-05 22:28 43.81350 19.00948 36025 ft 393 kts 321°
2026-05-05 22:28 43.84529 18.96621 36027 ft 386 kts 322°
2026-05-05 22:29 43.88737 18.90891 36022 ft 383 kts 322°
2026-05-05 22:29 43.92558 18.85691 36020 ft 382 kts 322°
2026-05-05 22:30 43.96334 18.80533 36017 ft 382 kts 322°
2026-05-05 22:30 44.00134 18.75324 36017 ft 383 kts 322°
2026-05-05 22:31 44.03902 18.70155 36016 ft 381 kts 322°
2026-05-05 22:31 44.07692 18.64942 36018 ft 381 kts 322°
2026-05-05 22:32 44.11207 18.60097 36022 ft 382 kts 322°
2026-05-05 22:32 44.15098 18.54759 36016 ft 381 kts 322°
2026-05-05 22:33 44.18892 18.49527 36017 ft 382 kts 322°
2026-05-05 22:33 44.22678 18.44287 36017 ft 382 kts 322°
2026-05-05 22:34 44.26493 18.38999 36012 ft 381 kts 322°
2026-05-05 22:34 44.30267 18.33742 36003 ft 381 kts 321°
2026-05-05 22:35 44.33859 18.28701 35993 ft 383 kts 321°
2026-05-05 22:35 44.37648 18.23393 35985 ft 382 kts 321°
2026-05-05 22:36 44.41421 18.18101 35982 ft 382 kts 321°
2026-05-05 22:36 44.45191 18.12810 35983 ft 382 kts 321°
2026-05-05 22:37 44.48979 18.07484 35980 ft 382 kts 321°
2026-05-05 22:37 44.52762 18.02150 35980 ft 382 kts 321°
2026-05-05 22:38 44.56489 17.96893 35981 ft 382 kts 321°
2026-05-05 22:38 44.60268 17.91553 35979 ft 383 kts 321°
2026-05-05 22:39 44.64027 17.86234 35980 ft 382 kts 321°
2026-05-05 22:39 44.67781 17.80910 35978 ft 381 kts 321°
2026-05-05 22:40 44.71421 17.75730 35978 ft 381 kts 321°
2026-05-05 22:40 44.75183 17.70362 35978 ft 383 kts 322°
2026-05-05 22:41 44.78930 17.65020 35980 ft 382 kts 321°
2026-05-05 22:41 44.82682 17.59656 35978 ft 381 kts 321°
2026-05-05 22:42 44.86441 17.54271 35979 ft 382 kts 321°
2026-05-05 22:42 44.90102 17.49018 35978 ft 381 kts 321°
2026-05-05 22:43 44.93796 17.43702 35977 ft 382 kts 321°
2026-05-05 22:43 44.97532 17.38317 35977 ft 383 kts 321°
2026-05-05 22:44 45.01085 17.33191 35978 ft 383 kts 320°
2026-05-05 22:44 45.04855 17.27712 35978 ft 383 kts 320°
2026-05-05 22:45 45.08292 17.22721 35979 ft 384 kts 319°
2026-05-05 22:45 45.11947 17.17462 35979 ft 384 kts 320°
2026-05-05 22:46 45.15945 17.12433 35978 ft 382 kts 324°
2026-05-05 22:46 45.20052 17.07711 35979 ft 382 kts 324°
2026-05-05 22:47 45.23928 17.03267 35979 ft 382 kts 324°
2026-05-05 22:47 45.28067 16.98510 35980 ft 380 kts 324°
2026-05-05 22:48 45.32129 16.93835 35980 ft 377 kts 324°
2026-05-05 22:48 45.36135 16.89218 35981 ft 373 kts 325°
2026-05-05 22:49 45.39982 16.84775 35980 ft 370 kts 325°
2026-05-05 22:49 45.43929 16.80209 35980 ft 366 kts 325°
2026-05-05 22:50 45.47466 16.76111 35978 ft 365 kts 325°
2026-05-05 22:50 45.51233 16.71739 35974 ft 364 kts 325°
2026-05-05 22:51 45.54925 16.67445 35968 ft 364 kts 325°
2026-05-05 22:51 45.58863 16.62858 35961 ft 364 kts 325°
2026-05-05 22:52 45.62693 16.58389 35956 ft 365 kts 325°
2026-05-05 22:52 45.66649 16.53763 35952 ft 365 kts 325°
2026-05-05 22:53 45.70588 16.49148 35951 ft 365 kts 325°
2026-05-05 22:53 45.74084 16.45046 35950 ft 365 kts 325°
2026-05-05 22:54 45.78261 16.40133 35950 ft 365 kts 325°
2026-05-05 22:54 45.82162 16.35538 35950 ft 365 kts 325°
2026-05-05 22:55 45.86004 16.30980 35951 ft 365 kts 324°
2026-05-05 22:55 45.89898 16.26356 35951 ft 365 kts 324°
2026-05-05 22:56 45.93835 16.21683 35951 ft 365 kts 324°
2026-05-05 22:56 45.97755 16.17028 35950 ft 365 kts 324°
2026-05-05 22:57 46.01662 16.12382 35950 ft 365 kts 324°
2026-05-05 22:57 46.05563 16.07734 35950 ft 365 kts 324°
2026-05-05 22:58 46.09438 16.03112 35950 ft 365 kts 324°
2026-05-05 22:58 46.13316 15.98495 35949 ft 365 kts 324°
2026-05-05 22:59 46.17281 15.93764 35940 ft 365 kts 324°
2026-05-05 22:59 46.21041 15.89255 35930 ft 365 kts 324°
2026-05-05 23:00 46.26792 15.82255 35913 ft 366 kts 322°
2026-05-05 23:00 46.30476 15.77299 35905 ft 367 kts 322°
2026-05-05 23:01 46.34227 15.72201 35900 ft 367 kts 322°
2026-05-05 23:01 46.37912 15.67182 35898 ft 367 kts 322°
2026-05-05 23:02 46.41595 15.62156 35896 ft 367 kts 322°
2026-05-05 23:02 46.45262 15.57141 35896 ft 367 kts 322°
2026-05-05 23:03 46.48990 15.52033 35896 ft 367 kts 322°
2026-05-05 23:03 46.52620 15.47049 35896 ft 367 kts 322°
2026-05-05 23:04 46.56303 15.41982 35896 ft 367 kts 322°
2026-05-05 23:04 46.59975 15.36920 35895 ft 367 kts 322°
2026-05-05 23:05 46.63613 15.31881 35892 ft 367 kts 321°
2026-05-05 23:05 46.67289 15.26771 35887 ft 367 kts 321°
2026-05-05 23:06 46.70877 15.21783 35881 ft 367 kts 321°
2026-05-05 23:06 46.74083 15.17324 35876 ft 367 kts 321°
2026-05-05 23:07 46.77613 15.12407 35873 ft 367 kts 321°
2026-05-05 23:07 46.81244 15.07348 35871 ft 368 kts 321°
2026-05-05 23:08 46.84850 15.02312 35871 ft 369 kts 321°
2026-05-05 23:09 46.95635 14.87198 35869 ft 371 kts 319°
2026-05-05 23:10 46.99144 14.82254 35870 ft 371 kts 318°
2026-05-05 23:10 47.02972 14.76850 35875 ft 370 kts 318°
2026-05-05 23:11 47.06523 14.71828 35882 ft 370 kts 317°
2026-05-05 23:11 47.10031 14.66851 35891 ft 370 kts 317°
2026-05-05 23:12 47.17266 14.56625 35911 ft 370 kts 318°
2026-05-05 23:13 47.20909 14.51446 35916 ft 369 kts 317°
2026-05-05 23:13 47.24484 14.46348 35919 ft 369 kts 318°
2026-05-05 23:14 47.28101 14.41175 35921 ft 369 kts 318°
2026-05-05 23:14 47.31844 14.35812 35922 ft 369 kts 317°
2026-05-05 23:15 47.35459 14.30598 35923 ft 370 kts 317°
2026-05-05 23:15 47.39034 14.25435 35920 ft 370 kts 317°
2026-05-05 23:16 47.42665 14.20189 35912 ft 370 kts 317°
2026-05-05 23:16 47.46314 14.14910 35896 ft 369 kts 317°
2026-05-05 23:17 47.49972 14.09608 35876 ft 370 kts 317°
2026-05-05 23:17 47.53642 14.04283 35852 ft 370 kts 317°
2026-05-05 23:18 47.60654 13.94075 35826 ft 370 kts 317°
2026-05-05 23:19 47.64164 13.88951 35820 ft 370 kts 317°
2026-05-05 23:19 47.67783 13.83657 35820 ft 370 kts 317°
2026-05-05 23:20 47.71436 13.78303 35825 ft 370 kts 317°
2026-05-05 23:20 47.75091 13.72933 35831 ft 370 kts 317°
2026-05-05 23:21 47.78717 13.67594 35840 ft 370 kts 317°
2026-05-05 23:21 47.82333 13.62262 35848 ft 370 kts 317°
2026-05-05 23:22 47.85787 13.57158 35853 ft 370 kts 317°
2026-05-05 23:22 47.89407 13.51795 35858 ft 370 kts 317°
2026-05-05 23:23 47.92990 13.46478 35866 ft 370 kts 317°
2026-05-05 23:23 47.96616 13.41084 35876 ft 370 kts 317°
2026-05-05 23:24 48.00227 13.35704 35884 ft 370 kts 317°
2026-05-05 23:24 48.03779 13.30378 35890 ft 370 kts 316°
2026-05-05 23:25 48.07383 13.24972 35892 ft 370 kts 316°
2026-05-05 23:25 48.10986 13.19573 35897 ft 370 kts 317°
2026-05-05 23:26 48.13613 13.15658 35894 ft 371 kts 316°
2026-05-05 23:27 48.21633 13.03648 35893 ft 373 kts 317°
2026-05-05 23:27 48.25708 12.98336 35892 ft 374 kts 320°
2026-05-05 23:28 48.29733 12.93508 35893 ft 376 kts 320°
2026-05-05 23:28 48.33738 12.88712 35894 ft 376 kts 320°
2026-05-05 23:29 48.37820 12.83819 35894 ft 376 kts 320°
2026-05-05 23:29 48.41872 12.78955 35894 ft 376 kts 320°
2026-05-05 23:30 48.45193 12.74961 35894 ft 376 kts 320°
2026-05-05 23:30 48.49937 12.69243 35894 ft 376 kts 320°
2026-05-05 23:31 48.54020 12.64314 35893 ft 376 kts 320°
2026-05-05 23:31 48.58124 12.59347 35890 ft 376 kts 320°
2026-05-05 23:32 48.62183 12.54426 35885 ft 376 kts 320°
2026-05-05 23:32 48.66194 12.49551 35881 ft 376 kts 320°
2026-05-05 23:33 48.70285 12.44570 35875 ft 376 kts 320°
2026-05-05 23:33 48.74356 12.39600 35872 ft 376 kts 320°
2026-05-05 23:34 48.78429 12.34619 35870 ft 376 kts 320°
2026-05-05 23:34 48.82447 12.29572 35870 ft 376 kts 317°
2026-05-05 23:35 48.86003 12.24361 35869 ft 375 kts 314°
2026-05-05 23:35 48.89507 12.18241 35868 ft 376 kts 309°
2026-05-05 23:36 48.92551 12.11828 35868 ft 377 kts 305°
2026-05-05 23:36 48.95329 12.05029 35869 ft 377 kts 304°
2026-05-05 23:37 48.98077 11.98169 35869 ft 377 kts 303°
2026-05-05 23:37 49.00807 11.91322 35865 ft 375 kts 303°
2026-05-05 23:38 49.03492 11.84556 35858 ft 373 kts 303°
2026-05-05 23:38 49.06182 11.77761 35849 ft 372 kts 302°
2026-05-05 23:39 49.08848 11.71002 35840 ft 370 kts 302°
2026-05-05 23:39 49.11512 11.64259 35834 ft 369 kts 302°
2026-05-05 23:40 49.14173 11.57534 35830 ft 368 kts 301°
2026-05-05 23:40 49.16787 11.50878 35832 ft 368 kts 301°
2026-05-05 23:41 49.19392 11.44214 35835 ft 368 kts 301°
2026-05-05 23:41 49.21988 11.37548 35837 ft 368 kts 301°
2026-05-05 23:42 49.24629 11.30735 35840 ft 368 kts 301°
2026-05-05 23:42 49.27221 11.24025 35839 ft 368 kts 301°
2026-05-05 23:43 49.29842 11.17239 35839 ft 368 kts 301°
2026-05-05 23:43 49.32449 11.10477 35839 ft 368 kts 301°
2026-05-05 23:44 49.35006 11.03827 35839 ft 368 kts 301°
2026-05-05 23:44 49.37542 10.97221 35839 ft 368 kts 300°
2026-05-05 23:45 49.39972 10.90270 35839 ft 368 kts 296°
2026-05-05 23:45 49.42286 10.83172 35839 ft 368 kts 296°
2026-05-05 23:46 49.44559 10.76164 35839 ft 368 kts 295°
2026-05-05 23:46 49.46841 10.69099 35839 ft 369 kts 295°
2026-05-05 23:47 49.49108 10.62057 35839 ft 369 kts 295°
2026-05-05 23:47 49.51376 10.54998 35839 ft 369 kts 295°
2026-05-05 23:48 49.53643 10.47926 35839 ft 369 kts 295°
2026-05-05 23:48 49.55792 10.41209 35838 ft 368 kts 295°
2026-05-05 23:49 49.57219 10.36734 35839 ft 369 kts 295°
2026-05-05 23:49 49.59621 10.29164 35841 ft 370 kts 295°
2026-05-05 23:50 49.61908 10.21934 35840 ft 374 kts 295°
2026-05-05 23:50 49.64175 10.14758 35839 ft 374 kts 295°
2026-05-05 23:51 49.66453 10.07537 35838 ft 374 kts 295°
2026-05-05 23:51 49.68708 10.00370 35839 ft 374 kts 295°
2026-05-05 23:52 49.70978 9.93131 35839 ft 374 kts 295°
2026-05-05 23:52 49.73269 9.85810 35839 ft 374 kts 295°
2026-05-05 23:53 49.75523 9.78583 35839 ft 374 kts 295°
2026-05-05 23:53 49.77774 9.71342 35839 ft 374 kts 295°
2026-05-05 23:54 49.80027 9.64072 35838 ft 374 kts 295°
2026-05-05 23:54 49.82263 9.56843 35839 ft 374 kts 295°
2026-05-05 23:55 49.84476 9.49662 35844 ft 374 kts 295°
2026-05-05 23:55 49.86707 9.42398 35857 ft 374 kts 295°
2026-05-05 23:56 49.88951 9.35075 35885 ft 375 kts 295°
2026-05-05 23:56 49.91175 9.27771 35920 ft 374 kts 294°
2026-05-05 23:57 49.93354 9.20608 35949 ft 374 kts 294°
2026-05-05 23:57 49.95566 9.13322 35965 ft 374 kts 294°
2026-05-05 23:58 49.97748 9.06129 35974 ft 374 kts 294°
2026-05-05 23:58 49.99945 8.98871 35979 ft 376 kts 293°
2026-05-05 23:59 50.02102 8.91717 35981 ft 378 kts 292°
2026-05-05 23:59 50.04285 8.84446 35983 ft 379 kts 292°
2026-05-06 00:00 50.06449 8.77096 35983 ft 379 kts 291°
2026-05-06 00:00 50.08517 8.69669 35983 ft 379 kts 291°
2026-05-06 00:01 50.10576 8.62269 35984 ft 379 kts 291°
2026-05-06 00:01 50.12651 8.54901 35984 ft 379 kts 291°
2026-05-06 00:02 50.14704 8.47568 35984 ft 379 kts 291°
2026-05-06 00:02 50.16690 8.40425 35984 ft 379 kts 291°
2026-05-06 00:03 50.18712 8.33117 35987 ft 379 kts 290°
2026-05-06 00:03 50.20798 8.25525 35984 ft 379 kts 290°
2026-05-06 00:04 50.22854 8.18029 35984 ft 379 kts 290°
2026-05-06 00:04 50.24886 8.10600 35981 ft 379 kts 290°
2026-05-06 00:05 50.27925 7.99449 35939 ft 379 kts 290°
2026-05-06 00:06 50.29972 7.91912 35892 ft 379 kts 290°
2026-05-06 00:06 50.31983 7.84482 35849 ft 379 kts 290°
2026-05-06 00:07 50.33989 7.77046 35820 ft 380 kts 290°
2026-05-06 00:07 50.35983 7.69630 35804 ft 380 kts 290°
2026-05-06 00:08 50.37950 7.62293 35796 ft 380 kts 290°
2026-05-06 00:08 50.39941 7.54841 35791 ft 380 kts 290°
2026-05-06 00:09 50.41914 7.47437 35788 ft 380 kts 290°
2026-05-06 00:09 50.43890 7.39994 35788 ft 380 kts 290°
2026-05-06 00:10 50.45858 7.32552 35792 ft 380 kts 290°
2026-05-06 00:10 50.47813 7.25118 35793 ft 380 kts 290°
2026-05-06 00:11 50.49746 7.17755 35795 ft 380 kts 290°
2026-05-06 00:11 50.51682 7.10373 35797 ft 381 kts 289°
2026-05-06 00:12 50.53645 7.02867 35800 ft 383 kts 289°
2026-05-06 00:12 50.55616 6.95296 35803 ft 386 kts 288°
2026-05-06 00:13 50.57579 6.87721 35807 ft 386 kts 288°
2026-05-06 00:13 50.59571 6.80014 35810 ft 386 kts 288°
2026-05-06 00:14 50.61471 6.72637 35811 ft 386 kts 288°
2026-05-06 00:14 50.63585 6.64409 35813 ft 386 kts 288°
2026-05-06 00:15 50.65606 6.56512 35817 ft 386 kts 288°
2026-05-06 00:15 50.67609 6.48660 35824 ft 386 kts 288°
2026-05-06 00:16 50.69606 6.40805 35831 ft 386 kts 288°
2026-05-06 00:16 50.71609 6.32899 35838 ft 386 kts 288°
2026-05-06 00:17 50.73569 6.25109 35838 ft 386 kts 288°
2026-05-06 00:17 50.75560 6.17182 35839 ft 386 kts 288°
2026-05-06 00:18 50.77517 6.09372 35839 ft 386 kts 288°
2026-05-06 00:18 50.79473 6.01537 35839 ft 386 kts 288°
2026-05-06 00:19 50.81383 5.93706 35839 ft 386 kts 287°
2026-05-06 00:19 50.83206 5.85977 35839 ft 386 kts 287°
2026-05-06 00:20 50.85045 5.78196 35839 ft 386 kts 287°
2026-05-06 00:20 50.86899 5.70359 35839 ft 386 kts 287°
2026-05-06 00:21 50.87545 5.67612 35797 ft 389 kts 289°
2026-05-06 00:21 50.89451 5.59454 35810 ft 402 kts 291°
2026-05-06 00:22 50.91447 5.51038 35822 ft 415 kts 291°
2026-05-06 00:22 50.93470 5.42439 35821 ft 428 kts 291°
2026-05-06 00:23 50.95544 5.33557 35819 ft 439 kts 290°
2026-05-06 00:23 50.97649 5.24474 35819 ft 449 kts 290°
2026-05-06 00:24 50.99791 5.15202 35817 ft 457 kts 290°
2026-05-06 00:24 51.01901 5.06034 35817 ft 464 kts 290°
2026-05-06 00:25 51.03982 4.96960 35815 ft 466 kts 290°
2026-05-06 00:25 51.06268 4.86951 35815 ft 466 kts 290°
2026-05-06 00:26 51.08443 4.77390 35814 ft 466 kts 290°
2026-05-06 00:26 51.10607 4.67843 35815 ft 466 kts 290°
2026-05-06 00:27 51.12870 4.57946 35815 ft 466 kts 290°
2026-05-06 00:27 51.15059 4.48262 35815 ft 466 kts 290°
2026-05-06 00:28 51.17245 4.38494 35815 ft 466 kts 290°
2026-05-06 00:28 51.19405 4.28770 35814 ft 466 kts 289°
2026-05-06 00:29 51.21579 4.18919 35814 ft 466 kts 289°
2026-05-06 00:29 51.23727 4.09150 35814 ft 466 kts 289°
2026-05-06 00:30 51.25878 3.99334 35814 ft 466 kts 289°
2026-05-06 00:30 51.28006 3.89580 35815 ft 466 kts 289°
2026-05-06 00:31 51.30145 3.79724 35814 ft 466 kts 289°
2026-05-06 00:31 51.32279 3.69846 35814 ft 466 kts 289°
2026-05-06 00:32 51.34392 3.60021 35815 ft 466 kts 289°
2026-05-06 00:32 51.36501 3.50168 35815 ft 466 kts 289°
2026-05-06 00:33 51.38602 3.40300 35815 ft 466 kts 289°
2026-05-06 00:33 51.40693 3.30434 35814 ft 466 kts 289°
2026-05-06 00:34 51.42776 3.20538 35814 ft 466 kts 289°
2026-05-06 00:34 51.44819 3.10656 35814 ft 466 kts 287°
2026-05-06 00:35 51.46533 3.00585 35814 ft 467 kts 285°
2026-05-06 00:35 51.48198 2.90406 35815 ft 467 kts 285°
2026-05-06 00:36 51.49822 2.80472 35547 ft 453 kts 285°
2026-05-06 00:36 51.50626 2.75550 34745 ft 446 kts 285°
2026-05-06 00:36 51.51408 2.70760 33587 ft 446 kts 285°
2026-05-06 00:36 51.52195 2.65923 32317 ft 447 kts 285°
2026-05-06 00:37 51.52978 2.61094 30902 ft 449 kts 285°
2026-05-06 00:37 51.53756 2.56269 29371 ft 452 kts 285°
2026-05-06 00:37 51.54579 2.51338 27750 ft 454 kts 287°
2026-05-06 00:37 51.55470 2.46903 26553 ft 447 kts 290°
2026-05-06 00:38 51.56520 2.42229 25878 ft 427 kts 291°
2026-05-06 00:38 51.57554 2.37729 25419 ft 419 kts 291°
2026-05-06 00:38 51.58562 2.33340 24950 ft 416 kts 290°
2026-05-06 00:38 51.59554 2.28992 24484 ft 413 kts 290°
2026-05-06 00:39 51.60558 2.24576 24012 ft 410 kts 290°
2026-05-06 00:39 51.61494 2.20443 23568 ft 406 kts 290°
2026-05-06 00:39 51.62561 2.16152 23180 ft 399 kts 300°
2026-05-06 00:39 51.64290 2.12706 22928 ft 393 kts 318°
2026-05-06 00:40 51.66317 2.09739 22673 ft 393 kts 314°
2026-05-06 00:40 51.67965 2.06233 22420 ft 392 kts 303°
2026-05-06 00:40 51.69286 2.02374 22167 ft 392 kts 296°
2026-05-06 00:40 51.70437 1.98341 21914 ft 390 kts 295°
2026-05-06 00:41 51.71547 1.94326 21662 ft 387 kts 295°
2026-05-06 00:41 51.72651 1.90355 21410 ft 386 kts 295°
2026-05-06 00:41 51.73756 1.86425 21161 ft 384 kts 295°
2026-05-06 00:41 51.74878 1.82466 20907 ft 383 kts 295°
2026-05-06 00:42 51.75983 1.78581 20657 ft 381 kts 296°
2026-05-06 00:42 51.77083 1.74719 20407 ft 380 kts 296°
2026-05-06 00:42 51.78183 1.70856 20157 ft 378 kts 296°
2026-05-06 00:42 51.79301 1.66932 19902 ft 377 kts 296°
2026-05-06 00:43 51.80394 1.63091 19651 ft 375 kts 296°
2026-05-06 00:43 51.81486 1.59251 19399 ft 373 kts 296°
2026-05-06 00:43 51.82561 1.55463 19150 ft 371 kts 296°
2026-05-06 00:43 51.83637 1.51663 18897 ft 371 kts 296°
2026-05-06 00:44 51.84715 1.47855 18645 ft 370 kts 296°